Home > Weather > Aurora > Past weeks

Flag for USA Past Weather in Aurora, Illinois, USA — Yesterday and Last 2 Weeks

Now
77 °F

Sunny.


Feels Like: 79 °F
Forecast: 65 / 78 °F
Wind: 16 mph from South

Location: Dupage Airport

Current Time: May 28, 2016 at 9:03:47 PM

Latest Report: May 28, 2016 at 7:52 PM


Visibility: 10 mi

Pressure: 29.86 "Hg

Humidity: 64%

Dew Point: 64 °F

Location of AuroraLocation

Past Weather in Aurora — Graph

°F

Aurora Temperature Yesterday

Maximum temperature yesterday: 81 °F (at 1:52 PM)
Minimum temperature yesterday: 67 °F (at 4:52 AM)
Average temperature yesterday: 72 °F

High & Low Weather Summary for the Past Weeks

 TemperatureHumidityPressure
High87 °F (May 24, 3:52 PM)94% (May 26, 2:52 AM)30.25 "Hg (May 26, 2:52 AM)
Low35 °F (May 15, 3:52 AM)24% (May 19, 4:52 PM)29.80 "Hg (May 26, 5:52 PM)
Average61 °F60%30.03 "Hg
* Reported May 13 7:57 PM — May 28 7:52 PM, Aurora, Weather by CustomWeather, © 2016

Note: Actual official high and low records may vary slightly from our data, if they occured in-between our weather recording intervals... More about our weather records

Advertising

Aurora Weather History for the Previous 24 Hours

Scroll right to see more
 ConditionsComfort  
Time TempWeatherWind HumidityBarometerVisibility
7:52 PM
Sat, May 28
77 °FSunny.16 mph64%29.86 "Hg10 mi
6:52 PM79 °FPassing clouds.21 mph60%29.85 "Hg10 mi
5:52 PM82 °FPassing clouds.21 mph55%29.84 "Hg10 mi
4:52 PM83 °FSunny.18 mph53%29.85 "Hg10 mi
3:52 PM81 °FPartly sunny.20 mph58%29.86 "Hg10 mi
2:52 PM80 °FScattered clouds.14 mph58%29.88 "Hg10 mi
1:52 PM78 °FBroken clouds.16 mph64%29.89 "Hg10 mi
12:52 PM75 °FBroken clouds.16 mph69%29.90 "Hg10 mi
11:52 AM75 °FScattered clouds.16 mph69%29.90 "Hg10 mi
10:52 AM74 °FBroken clouds.14 mph74%29.89 "Hg10 mi
9:52 AM73 °FPartly sunny.16 mph76%29.89 "Hg10 mi
8:52 AM73 °FPartly sunny.16 mph76%29.87 "Hg10 mi
7:52 AM71 °FPartly sunny.16 mph81%29.86 "Hg10 mi
7:02 AM70 °FMostly cloudy.20 mph81%29.87 "Hg10 mi
6:52 AM70 °FMore clouds than sun.18 mph81%29.85 "Hg10 mi
5:52 AM70 °FPartly cloudy.17 mph79%29.84 "Hg10 mi
4:52 AM69 °FPassing clouds.10 mph81%29.83 "Hg10 mi
3:52 AM68 °FPassing clouds.12 mph84%29.83 "Hg10 mi
2:52 AM69 °FPassing clouds.8 mph81%29.82 "Hg10 mi
1:52 AM69 °FPassing clouds.10 mph81%29.83 "Hg10 mi
12:52 AM69 °FClear.12 mph81%29.84 "Hg10 mi
11:52 PM
Fri, May 27
69 °FPassing clouds.12 mph84%29.85 "Hg10 mi
10:52 PM69 °FPassing clouds.13 mph84%29.85 "Hg10 mi
9:52 PM69 °FLight rain. Passing clouds.17 mph87%29.84 "Hg10 mi
Weather by CustomWeather, © 2016

See weather overviewHow to use our weather pages